TimeEST,TemperatureF,Dew PointF,Humidity,Sea Level PressureIn,VisibilityMPH,Wind Direction,Wind SpeedMPH,Gust SpeedMPH,PrecipitationIn,Events,Conditions,WindDirDegrees,DateUTC
12:54 AM,21.9,14.0,72,30.09,10.0,WSW,3.5,-,N/A,,Overcast,240,2013-02-04 05:54:00
1:54 AM,23.0,15.1,72,30.08,10.0,Calm,Calm,-,N/A,,Overcast,0,2013-02-04 06:54:00
2:54 AM,23.0,15.1,72,30.07,10.0,Calm,Calm,-,N/A,,Overcast,0,2013-02-04 07:54:00
3:54 AM,21.9,14.0,72,30.03,10.0,Calm,Calm,-,N/A,,Mostly Cloudy,0,2013-02-04 08:54:00
5:54 AM,24.1,16.0,71,29.97,10.0,South,4.6,-,N/A,,Overcast,170,2013-02-04 10:54:00
6:54 AM,25.0,17.1,72,29.94,10.0,Calm,Calm,-,N/A,,Overcast,0,2013-02-04 11:54:00
7:54 AM,25.0,17.1,72,29.93,10.0,South,6.9,-,N/A,,Overcast,170,2013-02-04 12:54:00
8:54 AM,26.1,17.1,69,29.89,10.0,South,10.4,-,N/A,,Overcast,170,2013-02-04 13:54:00
9:54 AM,27.0,17.1,66,29.88,10.0,South,6.9,-,N/A,,Overcast,180,2013-02-04 14:54:00
10:54 AM,28.9,19.0,67,29.87,10.0,South,6.9,-,N/A,,Overcast,190,2013-02-04 15:54:00
11:54 AM,30.9,19.9,64,29.87,10.0,SSW,6.9,-,N/A,,Overcast,200,2013-02-04 16:54:00
12:54 PM,32.0,21.9,66,29.84,10.0,SW,5.8,-,N/A,,Overcast,220,2013-02-04 17:54:00
1:54 PM,34.0,24.1,67,29.82,10.0,SW,8.1,-,N/A,,Scattered Clouds,220,2013-02-04 18:54:00
2:54 PM,37.0,25.0,62,29.81,10.0,West,8.1,-,N/A,,Clear,280,2013-02-04 19:54:00
3:54 PM,37.9,27.0,65,29.82,10.0,NW,8.1,-,N/A,,Mostly Cloudy,320,2013-02-04 20:54:00
4:03 PM,37.4,26.6,65,29.80,10.0,North,8.1,-,N/A,,Scattered Clouds,350,2013-02-04 21:03:00
4:32 PM,35.6,26.6,70,29.81,10.0,NNW,10.4,-,N/A,,Mostly Cloudy,340,2013-02-04 21:32:00
4:43 PM,35.6,26.6,70,29.82,10.0,North,12.7,19.6,N/A,,Scattered Clouds,350,2013-02-04 21:43:00
4:54 PM,34.0,26.1,73,29.84,10.0,North,12.7,-,N/A,,Scattered Clouds,10,2013-02-04 21:54:00
5:08 PM,33.8,24.8,70,29.82,10.0,North,10.4,-,N/A,,Mostly Cloudy,360,2013-02-04 22:08:00
5:54 PM,32.0,24.1,73,29.83,10.0,NNE,8.1,-,N/A,,Overcast,20,2013-02-04 22:54:00
6:54 PM,30.9,23.0,72,29.87,10.0,North,11.5,-,N/A,,Overcast,10,2013-02-04 23:54:00
7:54 PM,28.9,23.0,78,29.91,10.0,North,10.4,-,N/A,,Overcast,10,2013-02-05 00:54:00
8:54 PM,28.0,21.9,78,29.93,10.0,North,12.7,-,N/A,,Overcast,10,2013-02-05 01:54:00
9:41 PM,26.6,19.4,74,29.92,10.0,North,10.4,-,N/A,,Overcast,10,2013-02-05 02:41:00
9:54 PM,27.0,21.0,78,29.94,10.0,NNE,6.9,-,N/A,,Overcast,20,2013-02-05 02:54:00
10:54 PM,27.0,19.9,75,29.96,10.0,North,9.2,-,N/A,,Overcast,360,2013-02-05 03:54:00
11:16 PM,26.6,19.4,74,29.92,10.0,NE,8.1,-,N/A,,Overcast,40,2013-02-05 04:16:00
11:39 PM,26.6,19.4,74,29.91,10.0,NE,5.8,-,N/A,,Scattered Clouds,50,2013-02-05 04:39:00
11:54 PM,26.1,19.0,75,29.94,10.0,NNE,6.9,-,N/A,,Partly Cloudy,30,2013-02-05 04:54:00